Content
SEND FEEDBACK

Daily
Averages
Monthly
Summary
United States of America

EARTH CITY, MISSOURI


Home > North America > United States > Missouri
Elevation: 476 feet     Latitude: 38 46N     Longitude: 090 30W

WEATHER
 
SELECT A DAY
Number of Records: 203,416;   Date Range: 1/1/95 - 7/26/14
 
SHARE

PRINT THIS DATA

[ ← Previous Day ]
WEATHER ALMANAC - APRIL 7, 2013
[ Next Day → ]
[ °C ]   °F
Weather ElementAverageHighLow
Temperature67.3 °F77 °F (3:51 pm)55.9 °F (6:51 am)
Dewpoint48.4 °F57.9 °F (8:51 pm)43 °F (1:51 am)
Humidity53.2 %82 % (9:51 pm)31 % (1:51 pm)
Barometer29.85 in29.91 in (8:51 am)29.78 in (11:51 pm)
Wind Speed9 mph19.6 mph (11:51 pm)
Wind Gust26.5 mph (11:51 pm)
Weather ElementAverage
Visibility9.9 mi
Wind DirectionSE (131.2 °)

Weather ElementTotal
Precipitation0.03 in
Cooling Degree Days1.5 (Base 65)
Growing Degree Days16.5 (Base 50)
Averaged from 25 records on April 7, 2013
WEATHER CONDITIONS BREAKOUT
WIND DIRECTION BREAKOUT
WEATHER BY HOUR - APRIL 7, 2013
[ °C ]   °F
Local TimeTemperatureDewpointHumidityBarometerVisibilityWind DirectionWind SpeedGust SpeedPrecipitationEventsConditions
1:51 AM64.9 °F43.0 °F45 %29.81 in10.0 miSW (220°)12.7 mphOvercast
2:51 AM62.1 °F43.0 °F50 %29.81 in10.0 miSW (230°)8.1 mphMostly Cloudy
3:51 AM62.1 °F44.1 °F52 %29.81 in10.0 miSW (230°)5.8 mphMostly Cloudy
4:51 AM61.0 °F44.1 °F54 %29.83 in10.0 miWSW (250°)5.8 mphMostly Cloudy
5:51 AM57.9 °F44.1 °F60 %29.86 in10.0 miWest (280°)4.6 mphMostly Cloudy
6:51 AM55.9 °F43.0 °F62 %29.87 in10.0 miCalmMostly Cloudy
7:51 AM57.9 °F46.9 °F67 %29.90 in10.0 miCalmMostly Cloudy
8:51 AM64.9 °F45.0 °F48 %29.91 in10.0 miCalmMostly Cloudy
9:51 AM66.0 °F45.0 °F47 %29.91 in10.0 miEast (90°)3.5 mphMostly Cloudy
10:51 AM70.0 °F46.0 °F42 %29.91 in10.0 miENE (60°)4.6 mphMostly Cloudy
11:51 AM73.0 °F45.0 °F37 %29.91 in10.0 miEast (80°)4.6 mphScattered Clouds
12:51 PM75.0 °F45.0 °F34 %29.89 in10.0 miSSE (150°)5.8 mphMostly Cloudy
1:51 PM75.9 °F43.0 °F31 %29.88 in10.0 miESE (110°)9.2 mphMostly Cloudy
2:51 PM75.9 °F43.0 °F31 %29.86 in10.0 miESE (110°)9.2 mphOvercast
3:51 PM77.0 °F45.0 °F32 %29.84 in10.0 miSE (140°)5.8 mphMostly Cloudy
4:51 PM77.0 °F46.0 °F33 %29.82 in10.0 miEast (100°)12.7 mphMostly Cloudy
5:51 PM75.0 °F48.0 °F38 %29.82 in10.0 miESE (110°)10.4 mphMostly Cloudy
6:51 PM73.9 °F52.0 °F46 %29.83 in10.0 miSE (140°)16.1 mphOvercast
7:26 PM69.8 °F57.2 °F64 %29.84 in8.0 miSouth (170°)8.1 mph0.01 inRain-ThunderstormLight Thunderstorms and Rain
7:51 PM64.9 °F57.0 °F75 %29.83 in9.0 miSE (140°)17.3 mph0.02 inRain-ThunderstormLight Thunderstorms and Rain
8:17 PM64.4 °F57.2 °F77 %29.84 in10.0 miESE (120°)17.3 mph0.00 inOvercast
8:51 PM64.0 °F57.9 °F80 %29.83 in10.0 miESE (110°)16.1 mph0.00 inMostly Cloudy
9:51 PM62.6 °F57.2 °F82 %29.85 in10.0 miESE (120°)13.8 mphMostly Cloudy
10:51 PM66.0 °F57.0 °F73 %29.82 in10.0 miSSE (150°)12.7 mph0.00 inRainLight Rain
11:51 PM66.0 °F55.9 °F70 %29.78 in10.0 miSouth (170°)19.6 mph26.5 mph0.00 inRainLight Rain
Hourly data recorded from KSTL, located miles away from Earth City, Missouri







STORIES FROM OUR PARTNERS